Weather in Ende

Indonesia     8°50′28″S   121°39′32″E
temp.,
°C
wind,
m/s
gust,
m/s
humid.,
%
clouds,
%
prec.,
mm/h
press.,
hPa
HPBL,
m
20 april, tue
tue2023:00+18se119311 0.0 101363
02:00+18sse119612 0.0 101264
05:00+18sse119470 0.0 101277
08:00+21s227810 0.0 1014627
11:00+26sw22525 0.0 10121396
14:00+25sw225982 0.0 10101269
17:00+22s127844 0.0 1011352
20:00+19se119199 0.0 101456
21 april, wed
wed2123:00+17ese019417 0.0 101549
02:00+17se11942 0.0 101349
05:00+17e11945 0.0 101341
08:00+22s117599 0.0 1014439
11:00+26sw2254100 0.0 10121330
14:00+24ssw226455 0.1 1011992
17:00+21s227968 0.0 1012402
20:00+17se119319 0.0 101559
22 april, thu
thu2223:00+17e119421 0.0 101540
02:00+17ese119435 0.0 101238
05:00+17e119514 0.0 101227
08:00+23s11737 0.0 1013351
11:00+27sw225643 0.0 10121373
14:00+24ssw227843 0.4 1010723
17:00+21s129486 0.4 1011197
20:00+20sse129771 0.4 101386
23 april, fri
fri2323:00+20se129668 0.0 101474
02:00+19sse119160 0.1 101261
05:00+18ese11955 0.0 101251
08:00+22sse11745 0.0 1013275
11:00+28ssw12464 0.0 10111472
14:00+27sw215625 0.0 10091347
17:00+22s128829 0.3 1010222
20:00+20ese129849 0.5 101393
24 april, sat
sat2423:00+19e119818 0.0 101437
02:00+18e11965 0.0 101326
05:00+18ese119647 0.0 101326
08:00+23s128256 0.0 1015324
11:00+28ssw2255100 0.0 10131569
14:00+23ssw228692 0.9 1011593
17:00+21sse129698 2.1 1012187
20:00+19ese1298100 2.4 101471